STARLINK-33817, 63583

Orbit data source: Space-Track

STARLINK-33817, 63583 is a payload satellite owned by SpaceX/Seattle (US) in LEO that was launched on Mon, 14 Apr 2025 UTC via an FALCON 9 launch vehicle from the Air Force Eastern Test Range (AFETR). Payload-class satellites include a variety of spacecraft equipped with specific instruments for various scientific and technological missions. These include communications satellites like Starlink; space stations such as the ISS; scientific satellites like the Hubble; Earth observation satellites from companies like Planet Labs, Umbra, and HawkEye 360; GPS; miniature CubeSats for education and research; and military/defense satellites.

Loading next visibility...
Identifier
63583, 2025-076Q
Orbit
LEO
Country
Flag of USUS
Related business
Manufacturer
SpaceX/Seattle
Mission
Operational Commercial Communications
Bus & Motor
STARLINK V2MO, Unknown motor
Mass
575 kg wet, ~530 kg dry
Launch date (UTC)
2025-04-14 (6 months ago)
Launch vehicle
FALCON 9
Launch site
Air Force Eastern Test Range (AFETR)
Object type
Payload
Rocket body
Debris
Shape & HBR
Box + 2 Pan, 17.7 m
Radar Cross Section
36.964 m², Large (>1 m²)

Expand to show TLE details & history
Last TLE update: 19 hours ago

TLE from 19 hours ago
0 STARLINK-33817
1 63583U 25076Q   25286.69612013  .00044730  00000-0  16240-2 0  9999
2 63583  43.0059  71.4877 0001743 269.3215  90.7437 15.27602451 29346
Epoch: 2025-10-13T16:42Z
TLE epoch observation values (Epoch: 2025-10-13T16:42:24.779Z)
Latitude
-0.00001°
Longitude
158.38925°
Altitude
482.774 km
Speed
7.626 km/s
True Right ascension
04h 45m 57s
True Declination
0° 00' 00"
Sunlit
Object was in full shadow at epoch
Visualization orbit readout
Latitude
Unknown
Longitude
Unknown
Altitude
Unknown
Speed
Unknown
Apparent Right ascension
Unknown
Apparent Declination
Unknown
Sunlit
N/A
Visualization observer readout
Local Sidereal Time
06:22:43
Azimuth
Unknown
Elevation
Unknown
Doppler factor
Unknown
Orbital elements
Apogee altitude
486.122 km
Perigee altitude
483.73 km
Semi-major axis
6,863.063 km
Eccentricity
0.00017
Inclination
43.0059°
RAAN
71.4877°
Arg. of periapsis
269.3215°
True anomaly
90.76367°
Mean anomaly
90.7437°
Eccentric anomaly
90.75369°
Mean motion
3.81739 °/min
Orbital period
94.31 mins
BSTAR
0.001624
Loading maneuver chart data...
Computing Atmospheric mass density...
Loading historical data...
Loading historical data...
Loading historical data...
Loading historical data...
Loading historical data...
Loading historical data...
Loading historical data...

Documentation

Showing up to 5 results
|